TimePDT,TemperatureF,Dew PointF,Humidity,Sea Level PressureIn,VisibilityMPH,Wind Direction,Wind SpeedMPH,Gust SpeedMPH,PrecipitationIn,Events,Conditions,WindDirDegrees,DateUTC
12:53 AM,59.0,48.9,69,29.95,10.0,SE,9.2,-,N/A,,Clear,130,2013-09-04 07:53:00
1:53 AM,57.9,48.9,72,29.94,10.0,SE,8.1,-,N/A,,Clear,130,2013-09-04 08:53:00
2:53 AM,57.9,48.9,72,29.94,10.0,SE,8.1,-,N/A,,Clear,140,2013-09-04 09:53:00
3:53 AM,57.9,48.9,72,29.95,10.0,SE,9.2,-,N/A,,Clear,140,2013-09-04 10:53:00
4:53 AM,57.0,48.9,74,29.94,10.0,SSE,8.1,-,N/A,,Clear,150,2013-09-04 11:53:00
5:53 AM,57.0,48.9,74,29.95,10.0,SSE,8.1,-,N/A,,Clear,150,2013-09-04 12:53:00
6:53 AM,55.9,50.0,80,29.97,10.0,SSE,8.1,-,N/A,,Clear,160,2013-09-04 13:53:00
7:53 AM,57.0,51.1,81,29.98,10.0,SSE,8.1,-,N/A,,Clear,160,2013-09-04 14:53:00
8:53 AM,62.1,52.0,70,29.97,10.0,SE,5.8,-,N/A,,Clear,140,2013-09-04 15:53:00
9:53 AM,63.0,53.1,70,29.98,10.0,Calm,Calm,-,N/A,,Clear,0,2013-09-04 16:53:00
10:53 AM,66.0,53.1,63,29.98,10.0,Variable,5.8,-,N/A,,Clear,0,2013-09-04 17:53:00
11:53 AM,70.0,53.1,55,29.97,8.0,Variable,3.5,-,N/A,,Clear,0,2013-09-04 18:53:00
12:53 PM,72.0,50.0,46,29.96,10.0,Variable,5.8,-,N/A,,Clear,0,2013-09-04 19:53:00
1:53 PM,72.0,48.0,43,29.96,10.0,WSW,5.8,-,N/A,,Clear,240,2013-09-04 20:53:00
2:53 PM,73.9,48.9,41,29.95,10.0,Calm,Calm,-,N/A,,Partly Cloudy,0,2013-09-04 21:53:00
3:53 PM,75.0,46.9,37,29.94,10.0,Variable,3.5,-,N/A,,Clear,0,2013-09-04 22:53:00
4:53 PM,73.9,45.0,35,29.93,10.0,Variable,3.5,-,N/A,,Clear,0,2013-09-04 23:53:00
5:53 PM,73.0,46.9,39,29.93,10.0,NW,6.9,-,N/A,,Partly Cloudy,320,2013-09-05 00:53:00
6:53 PM,66.0,51.1,59,29.93,10.0,NNW,5.8,-,N/A,,Clear,340,2013-09-05 01:53:00
7:53 PM,66.0,48.9,54,29.93,10.0,NNE,5.8,-,N/A,,Clear,20,2013-09-05 02:53:00
8:53 PM,66.0,48.9,54,29.93,10.0,Calm,Calm,-,N/A,,Scattered Clouds,0,2013-09-05 03:53:00
9:53 PM,66.0,48.9,54,29.91,10.0,Calm,Calm,-,N/A,,Partly Cloudy,0,2013-09-05 04:53:00
10:48 PM,57.2,53.6,88,30.25,1.8,South,10.4,24.2,0.16,Rain,Heavy Rain,180,2013-09-05 05:48:00
10:53 PM,55.9,55.0,97,29.97,1.2,Variable,6.9,21.9,0.19,Rain,Heavy Rain,0,2013-09-05 05:53:00
10:56 PM,55.4,55.4,100,30.24,2.0,Variable,5.8,20.7,0.00,Rain,Light Rain,0,2013-09-05 05:56:00
11:03 PM,55.4,55.4,100,30.24,7.0,Variable,5.8,-,0.01,Rain,Light Rain,0,2013-09-05 06:03:00
11:53 PM,57.0,53.1,87,29.93,10.0,SE,8.1,-,0.01,,Overcast,140,2013-09-05 06:53:00